Timestamp,Temp,Chill,HIndex,Humid,Dewpt,Wind,HiWind,WindDir,Rain,RainRate,Barom,Solar,ET,UV,InsideTemp,InsideHumid
2016-08-05 00:00:00,57.5,57.5,57.5,85,53.0240288169651,2,6,225,0,0,29.679,0,0.001,0,63.6,68
2016-08-05 00:05:00,57.4,57.4,57.4,85,52.9259934331034,3,7,292.5,0,0,29.68,0,0,0,63.6,68
2016-08-05 00:10:00,57.3,57.3,57.3,85,52.8279576222539,2,6,270,0,0,29.68,0,0,0,63.6,68
2016-08-05 00:15:00,57.3,57.3,57.3,86,53.1468485694805,1,5,247.5,0,0,29.682,0,0,0,63.6,68
2016-08-05 00:20:00,57.2,57.2,57.2,86,53.0486729449795,1,5,247.5,0,0,29.684,0,0,0,63.5,69
2016-08-05 00:25:00,57.2,57.2,57.2,86,53.0486729449795,1,4,247.5,0,0,29.686,0,0,0,63.5,69
2016-08-05 00:30:00,57.2,57.2,57.2,86,53.0486729449795,2,6,247.5,0,0,29.689,0,0,0,63.5,69
2016-08-05 00:35:00,57.3,57.3,57.3,86,53.1468485694805,2,6,292.5,0,0,29.692,0,0,0,63.6,69
2016-08-05 00:40:00,57.4,57.4,57.4,86,53.2450237968746,2,7,270,0,0,29.69,0,0,0,63.8,69
2016-08-05 00:45:00,57.5,57.5,57.5,87,53.6591248817619,2,7,292.5,0,0,29.691,0,0,0,63.8,69
2016-08-05 00:50:00,57.5,57.5,57.5,87,53.6591248817619,2,6,315,0,0,29.691,0,0,0,63.8,69
2016-08-05 00:55:00,57.6,57.6,57.6,87,53.7574374714984,1,6,315,0,0,29.695,0,0,0,63.8,69
2016-08-05 01:00:00,57.7,57.7,57.7,87,53.8557496937992,2,6,315,0,0,29.694,0,0.001,0,64,69
2016-08-05 01:05:00,57.8,57.8,57.8,87,53.9540615486664,1,5,315,0,0,29.695,0,0,0,64,69
2016-08-05 01:10:00,57.8,57.8,57.8,87,53.9540615486664,1,5,315,0,0,29.698,0,0,0,64.1,69
2016-08-05 01:15:00,57.9,57.9,57.9,87,54.0523730361021,1,4,315,0,0,29.7,0,0,0,64.1,69
2016-08-05 01:20:00,57.9,57.9,57.9,87,54.0523730361021,1,5,315,0,0,29.701,0,0,0,64.3,69
2016-08-05 01:25:00,58,58,58,87,54.1506841561083,1,5,315,0,0,29.703,0,0,0,64.3,69
2016-08-05 01:30:00,58.1,58.1,58.1,87,54.2489949086871,2,5,315,0,0,29.705,0,0,0,64.3,69
2016-08-05 01:35:00,58.1,58.1,58.1,87,54.2489949086871,0,2,0,0,0,29.703,0,0,0,64.3,69
2016-08-05 01:40:00,58.2,58.2,58.2,87,54.3473052938405,2,5,315,0,0,29.707,0,0,0,64.5,69
2016-08-05 01:45:00,58.3,58.3,58.3,87,54.4456153115706,3,6,315,0,0,29.711,0,0,0,64.6,68
2016-08-05 01:50:00,58.4,58.4,58.4,87,54.5439249618795,1,4,315,0,0,29.713,0,0,0,64.8,68
2016-08-05 01:55:00,58.5,58.5,58.5,87,54.6422342447692,0,2,0,0,0,29.713,0,0,0,64.8,68
2016-08-05 02:00:00,58.6,58.6,58.6,87,54.7405431602418,1,4,315,0,0,29.714,0,0,0,64.6,68
2016-08-05 02:05:00,58.6,58.6,58.6,86,54.4230955521439,0,4,0,0,0,29.714,0,0,0,64.6,68
2016-08-05 02:10:00,58.6,58.6,58.6,86,54.4230955521439,0,3,0,0,0,29.715,0,0,0,64.6,68
2016-08-05 02:15:00,58.6,58.6,58.6,86,54.4230955521439,0,4,0,0,0,29.716,0,0,0,64.6,68
2016-08-05 02:20:00,58.7,58.7,58.7,86,54.5212656173678,1,4,315,0,0,29.718,0,0,0,64.6,68
2016-08-05 02:25:00,58.7,58.7,58.7,86,54.5212656173678,0,2,0,0,0,29.722,0,0,0,64.6,68
2016-08-05 02:30:00,58.7,58.7,58.7,86,54.5212656173678,0,3,0,0,0,29.722,0,0,0,64.6,68
2016-08-05 02:35:00,58.7,58.7,58.7,86,54.5212656173678,1,4,315,0,0,29.722,0,0,0,64.8,68
2016-08-05 02:40:00,58.7,58.7,58.7,86,54.5212656173678,0,4,0,0,0,29.724,0,0,0,64.8,68
2016-08-05 02:45:00,58.7,58.7,58.7,86,54.5212656173678,0,2,0,0,0,29.726,0,0,0,64.8,68
2016-08-05 02:50:00,58.7,58.7,58.7,86,54.5212656173678,1,5,315,0,0,29.728,0,0,0,64.8,69
2016-08-05 02:55:00,58.8,58.8,58.8,86,54.6194352855185,0,2,0,0,0,29.728,0,0,0,64.6,69
2016-08-05 03:00:00,58.8,58.8,58.8,86,54.6194352855185,0,4,0,0,0,29.729,0,0,0,64.6,69
2016-08-05 03:05:00,58.8,58.8,58.8,86,54.6194352855185,1,4,315,0,0,29.73,0,0,0,64.6,69
2016-08-05 03:10:00,58.8,58.8,58.8,86,54.6194352855185,2,7,337.5,0,0,29.733,0,0,0,64.8,69
2016-08-05 03:15:00,58.8,58.8,58.8,86,54.6194352855185,2,6,315,0,0,29.734,0,0,0,64.9,69
2016-08-05 03:20:00,58.7,58.7,58.7,86,54.5212656173678,2,7,292.5,0,0,29.738,0,0,0,64.8,69
2016-08-05 03:25:00,58.6,58.6,58.6,86,54.4230955521439,3,5,292.5,0,0,29.736,0,0,0,64.9,68
2016-08-05 03:30:00,58.5,58.5,58.5,86,54.3249250898445,4,7,315,0,0,29.741,0,0,0,64.9,68
2016-08-05 03:35:00,58.4,58.4,58.4,86,54.2267542304672,4,7,315,0,0,29.741,0,0,0,64.9,68
2016-08-05 03:40:00,58.3,58.3,58.3,86,54.1285829740094,2,6,337.5,0,0,29.744,0,0,0,64.8,67
2016-08-05 03:45:00,58.2,58.2,58.2,86,54.0304113204688,2,6,337.5,0,0,29.746,0,0,0,64.8,67
2016-08-05 03:50:00,58.1,58.1,58.1,86,53.9322392698431,2,6,0,0,0,29.751,0,0,0,64.6,67
2016-08-05 03:55:00,58.1,58.1,58.1,86,53.9322392698431,0,4,0,0,0,29.751,0,0,0,64.5,67
2016-08-05 04:00:00,58,58,58,86,53.8340668221297,1,5,0,0,0,29.754,0,0.001,0,64.5,67
2016-08-05 04:05:00,58,58,58,85,53.5141993315516,1,4,0,0,0,29.752,0,0,0,64.5,67
2016-08-05 04:10:00,58,58,58,85,53.5141993315516,1,4,0,0,0,29.751,0,0,0,64.5,67
2016-08-05 04:15:00,58,58,58,85,53.5141993315516,0,1,0,0,0,29.753,0,0,0,64.3,67
2016-08-05 04:20:00,57.9,57.9,57.9,85,53.4161660825879,0,2,0,0,0,29.751,0,0,0,64.3,68
2016-08-05 04:25:00,57.9,57.9,57.9,85,53.4161660825879,0,2,0,0,0,29.749,0,0,0,64.3,68
2016-08-05 04:30:00,57.9,57.9,57.9,85,53.4161660825879,0,1,0,0,0,29.748,0,0,0,64.1,67
2016-08-05 04:35:00,57.9,57.9,57.9,85,53.4161660825879,0,1,0,0,0,29.749,0,0,0,64.1,68
2016-08-05 04:40:00,57.9,57.9,57.9,85,53.4161660825879,0,2,0,0,0,29.748,0,0,0,64.1,68
2016-08-05 04:45:00,58,58,58,85,53.5141993315516,0,1,0,0,0,29.75,0,0,0,64.1,68
2016-08-05 04:50:00,58,58,58,85,53.5141993315516,0,0,0,0,0,29.754,0,0,0,64.1,68
2016-08-05 04:55:00,58,58,58,85,53.5141993315516,0,1,0,0,0,29.751,0,0,0,64.1,68
2016-08-05 05:00:00,58,58,58,85,53.5141993315516,0,0,0,0,0,29.75,1,0,0,64.1,68
2016-08-05 05:05:00,58,58,58,85,53.5141993315516,0,0,0,0,0,29.751,7,0,0,64.1,68
2016-08-05 05:10:00,58.1,58.1,58.1,85,53.6122321535441,0,0,0,0,0,29.753,9,0,0,64.1,68
2016-08-05 05:15:00,58.1,58.1,58.1,85,53.6122321535441,1,4,0,0,0,29.756,11,0,0,64.1,68
2016-08-05 05:20:00,58.2,58.2,58.2,85,53.7102645485682,2,5,247.5,0,0,29.754,11,0,0,64,68
2016-08-05 05:25:00,58.3,58.3,58.3,85,53.8082965166266,1,5,247.5,0,0,29.758,10,0,0,64,68
2016-08-05 05:30:00,58.3,58.3,58.3,85,53.8082965166266,1,8,247.5,0,0,29.762,10,0,0,64,68
2016-08-05 05:35:00,58.2,58.2,58.2,84,53.3867923958973,3,7,292.5,0,0,29.763,13,0,0,64,67
2016-08-05 05:40:00,58.2,58.2,58.2,84,53.3867923958973,2,7,247.5,0,0,29.764,15,0,0,64,67
2016-08-05 05:45:00,58.1,58.1,58.1,84,53.2889010061477,1,6,247.5,0,0,29.767,14,0,0,64,66
2016-08-05 05:50:00,58.1,58.1,58.1,84,53.2889010061477,2,8,247.5,0,0,29.775,17,0,0,63.8,66
2016-08-05 05:55:00,58.1,58.1,58.1,83,52.9621707643017,1,7,247.5,0,0,29.773,28,0,0,63.6,66
2016-08-05 06:00:00,58,58,58,83,52.8644212716658,1,6,225,0,0,29.776,44,0.001,0,63.6,66
2016-08-05 06:05:00,58,58,58,83,52.8644212716658,2,6,225,0,0,29.778,70,0,0,63.6,66
2016-08-05 06:10:00,58,58,58,82,52.5343580077558,3,6,247.5,0,0,29.777,138,0,0,63.8,65
2016-08-05 06:15:00,58.1,58.1,58.1,82,52.6319637366109,3,8,225,0,0,29.783,167,0,0,64,65
2016-08-05 06:20:00,58.2,58.2,58.2,82,52.7295689475011,2,6,225,0,0,29.784,153,0,0,64.1,65
2016-08-05 06:25:00,58.4,58.4,58.4,81,52.5905777571465,2,7,202.5,0,0,29.777,187,0,0.1,64.3,64
2016-08-05 06:30:00,58.6,58.6,58.6,81,52.7854938660213,3,8,247.5,0,0,29.778,268,0,0.4,64.5,63
2016-08-05 06:35:00,58.9,58.9,58.9,80,52.7392845437585,3,9,202.5,0,0,29.785,240,0,0.1,64.6,63
2016-08-05 06:40:00,59,59,59,80,52.8365931705396,3,7,202.5,0,0,29.781,251,0,0.1,64.8,63
2016-08-05 06:45:00,59.1,59.1,59.1,79,52.5912858857507,3,8,270,0,0,29.784,203,0,0,64.9,62
2016-08-05 06:50:00,59.4,59.4,59.4,78,52.535863301527,2,10,247.5,0,0,29.787,177,0,0,65.1,62
2016-08-05 06:55:00,59.5,59.5,59.5,77,52.2818910293077,2,7,180,0,0,29.789,184,0,0,65.1,61
2016-08-05 07:00:00,59.6,59.6,59.6,77,52.3787455321524,2,7,225,0,0,29.793,185,0.004,0,65.3,61
2016-08-05 07:05:00,59.8,59.8,59.8,76,52.2169846086509,2,8,225,0,0,29.797,181,0,0,65.3,61
2016-08-05 07:10:00,59.8,59.8,59.8,76,52.2169846086509,2,7,315,0,0,29.8,182,0,0.1,65.3,61
2016-08-05 07:15:00,59.9,59.9,59.9,75,51.9539265292489,3,9,337.5,0,0,29.796,204,0,0.5,65.4,61
2016-08-05 07:20:00,60,60,60,75,52.0504696018885,2,5,337.5,0,0,29.8,253,0,0.6,65.6,60
2016-08-05 07:25:00,60.2,60.2,60.2,75,52.2435535312809,3,8,225,0,0,29.804,298,0,0.7,65.8,60
2016-08-05 07:30:00,60.4,60.4,60.4,74,52.0718522978292,4,8,270,0,0,29.805,291,0,0.7,65.9,59
2016-08-05 07:35:00,60.5,60.5,60.5,73,51.7989357456711,5,11,292.5,0,0,29.805,243,0,0.6,66.1,59
2016-08-05 07:40:00,60.5,60.5,60.5,72,51.4251638823293,4,7,270,0,0,29.806,263,0,0.7,66.2,58
2016-08-05 07:45:00,60.5,60.5,60.5,70,50.6637244315621,5,12,270,0,0,29.808,267,0,0.8,66.4,56
2016-08-05 07:50:00,60.7,60.7,60.7,71,51.2385993851291,4,10,270,0,0,29.811,261,0,0.8,66.4,57
2016-08-05 07:55:00,60.7,60.7,60.7,71,51.2385993851291,4,10,315,0,0,29.808,231,0,0.9,66.7,57
2016-08-05 08:00:00,60.9,60.9,60.9,72,51.809407148559,3,10,292.5,0,0,29.813,283,0.006,1,66.9,57
2016-08-05 08:05:00,61.1,61.1,61.1,72,52.0015237589441,4,9,247.5,0,0,29.813,315,0,1.2,66.7,57
2016-08-05 08:10:00,61.2,61.2,61.2,71,51.7180799936121,6,11,270,0,0,29.813,336,0,1.5,66.9,58
2016-08-05 08:15:00,61.6,61.6,61.6,71,52.1016488112457,5,14,292.5,0,0,29.814,468,0,1.7,66.9,57
2016-08-05 08:20:00,61.6,61.6,61.6,70,51.7167624646012,6,12,292.5,0,0,29.812,470,0,1.7,67,56
2016-08-05 08:25:00,62.2,62.2,62.2,68,51.5045923327497,4,10,247.5,0,0,29.815,462,0,1.7,67,55
2016-08-05 08:30:00,62.5,62.5,62.5,67,51.3893217705602,4,13,225,0,0,29.82,449,0,1.8,66.7,54
2016-08-05 08:35:00,62.7,62.7,62.7,67,51.5797412449348,4,11,292.5,0,0,29.821,441,0,1.8,66.7,55
2016-08-05 08:40:00,62.9,62.9,62.9,67,51.7701566913107,3,9,202.5,0,0,29.82,427,0,1.8,66.9,55
2016-08-05 08:45:00,62.9,62.9,62.9,66,51.362742894157,4,11,292.5,0,0,29.819,401,0,1.8,67,55
2016-08-05 08:50:00,62.5,62.5,62.5,67,51.3893217705602,6,11,270,0,0,29.819,405,0,1.9,67.2,55
2016-08-05 08:55:00,62.4,62.4,62.4,66,50.8875624250541,5,12,225,0,0,29.82,473,0,2.1,67.4,54
2016-08-05 09:00:00,62.9,62.9,62.9,66,51.362742894157,4,10,292.5,0,0,29.817,514,0.01,2.4,67.2,55
2016-08-05 09:05:00,63.3,63.3,63.3,66,51.7428685146134,4,10,315,0,0,29.819,475,0,2.3,67.4,55
2016-08-05 09:10:00,63.5,63.5,63.5,65,51.5189960017298,5,11,292.5,0,0,29.823,487,0,2.4,67.5,55
2016-08-05 09:15:00,63.4,63.4,63.4,66,51.8378973150333,5,11,270,0,0,29.825,470,0,2.4,67.9,54
2016-08-05 09:20:00,63.3,63.3,63.3,66,51.7428685146134,5,10,225,0,0,29.821,486,0,2.6,67.9,54
2016-08-05 09:25:00,63.6,63.6,63.6,65,51.6138471002223,5,10,292.5,0,0,29.825,620,0,3.2,67.7,54
2016-08-05 09:30:00,64.4,64.4,64.4,64,51.9514508163796,5,11,270,0,0,29.823,660,0,3.4,67.9,54
2016-08-05 09:35:00,64.3,64.3,64.3,65,52.277774632017,6,11,315,0,0,29.825,608,0,3.3,68,55
2016-08-05 09:40:00,64.5,64.5,64.5,64,52.0461140576824,7,15,315,0,0,29.83,490,0,3,68.4,53
2016-08-05 09:45:00,64.1,64.1,64.1,64,51.6674544169905,7,12,315,0,0,29.832,404,0,2.6,68.4,54
2016-08-05 09:50:00,64.3,64.3,64.3,65,52.277774632017,4,10,270,0,0,29.828,359,0,2.4,68.5,54
2016-08-05 09:55:00,64.2,64.2,64.2,65,52.1829310728092,5,11,225,0,0,29.828,322,0,2.2,68.9,54
2016-08-05 10:00:00,64.1,64.1,64.1,65,52.0880864366158,4,10,337.5,0,0,29.829,362,0.012,2.4,69,54
2016-08-05 10:05:00,64.6,64.6,64.6,65,52.56229884791,4,10,292.5,0,0,29.828,457,0,2.7,69.4,54
2016-08-05 10:10:00,65.2,65.2,65.2,63,52.2802913197327,4,10,0,0,0,29.831,462,0,2.8,69.6,52
2016-08-05 10:15:00,65.7,65.7,65.7,62,52.3172797547778,4,14,270,0,0,29.832,587,0,3.6,69.7,52
2016-08-05 10:20:00,65.8,65.8,65.8,62,52.411564322678,6,15,225,0,0,29.836,491,0,2.9,70.1,51
2016-08-05 10:25:00,65.5,65.5,65.5,62,52.1287070652397,5,12,270,0,0,29.836,557,0,3.3,70.1,51
2016-08-05 10:30:00,65.2,65.2,65.2,62,51.845839146253,5,11,247.5,0,0,29.835,515,0,3.2,70.1,51
2016-08-05 10:35:00,65.2,65.2,65.2,63,52.2802913197327,6,12,247.5,0,0,29.833,438,0,2.7,70.1,51
2016-08-05 10:40:00,65,65,65,63,52.0913406798023,5,10,292.5,0,0,29.836,402,0,2.6,70.2,52
2016-08-05 10:45:00,65.2,65.2,65.2,62,51.845839146253,6,13,315,0,0,29.834,476,0,3.3,70.4,51
2016-08-05 10:50:00,65.7,65.7,65.7,62,52.3172797547778,6,12,315,0,0,29.836,724,0,4.8,70.4,50
2016-08-05 10:55:00,67.2,67.2,67.2,60,52.8362333582209,4,10,202.5,0,0,29.836,858,0,4.5,70.4,51
2016-08-05 11:00:00,67.7,67.7,67.7,59,52.8472538693897,3,11,315,0,0,29.836,455,0.014,3.3,70.6,50
2016-08-05 11:05:00,66.5,66.5,66.5,60,52.1789559306705,5,15,225,0,0,29.838,490,0,3.4,70.4,50
2016-08-05 11:10:00,65.7,65.7,65.7,60,51.4277062412418,7,12,202.5,0,0,29.839,649,0,4.5,70.2,50
2016-08-05 11:15:00,66,66,66,61,52.1579899928535,6,11,292.5,0,0,29.842,511,0,3.7,70.2,50
2016-08-05 11:20:00,66.1,66.1,66.1,60,51.8033411515664,4,9,270,0,0,29.84,513,0,3.6,70.2,50
2016-08-05 11:25:00,66.2,66.2,66.2,60,51.8972467335811,2,8,135,0,0,29.84,464,0,3.4,70.2,50
2016-08-05 11:30:00,66.2,66.2,66.2,60,51.8972467335811,4,13,292.5,0,0,29.839,534,0,4,70.2,50
2016-08-05 11:35:00,66.5,66.5,66.5,59,51.7228261547433,5,12,225,0,0,29.836,592,0,4.3,70.2,49
2016-08-05 11:40:00,66.8,66.8,66.8,59,52.003950571235,6,12,247.5,0,0,29.839,670,0,4.6,70.1,50
2016-08-05 11:45:00,66.6,66.6,66.6,58,51.3533662605485,7,15,270,0,0,29.842,581,0,4.1,70.2,49
2016-08-05 11:50:00,66.5,66.5,66.5,58,51.2598506105592,6,13,315,0,0,29.841,544,0,4,70.2,49
2016-08-05 11:55:00,66.6,66.6,66.6,57,50.8831239208862,6,14,292.5,0,0,29.836,716,0,4.7,70.2,48
2016-08-05 12:00:00,66.9,66.9,66.9,56,50.6849232450673,7,15,225,0,0,29.834,559,0.015,4.2,70.2,47
2016-08-05 12:05:00,66.6,66.6,66.6,57,50.8831239208862,6,16,315,0,0,29.838,514,0,4.4,70.1,48
2016-08-05 12:10:00,66.9,66.9,66.9,57,51.1630730262655,8,15,292.5,0,0,29.839,789,0,5.5,70.2,48
2016-08-05 12:15:00,68,68,68,57,52.1894474822816,6,13,247.5,0,0,29.84,793,0,5.7,70.4,48
2016-08-05 12:20:00,68.6,68.6,68.6,55,51.7785076235825,7,14,225,0,0,29.84,911,0,6,70.7,49
2016-08-05 12:25:00,68.7,68.7,68.7,55,51.8713946063916,6,11,270,0,0,29.841,821,0,5.9,70.9,48
2016-08-05 12:30:00,68.9,68.9,68.9,55,52.0571642262689,6,13,247.5,0,0,29.844,686,0,4.8,71.1,48
2016-08-05 12:35:00,68.8,68.8,68.8,54,51.4668246406269,6,13,247.5,0,0,29.846,324,0,4.3,71.1,47
2016-08-05 12:40:00,68.6,68.6,68.6,54,51.2814645313731,6,12,202.5,0,0,29.845,411,0,4.7,70.9,47
2016-08-05 12:45:00,69.2,69.2,69.2,53,51.3310699117661,3,12,202.5,0,0,29.839,385,0,4.5,71.1,48
2016-08-05 12:50:00,69.6,69.6,69.6,52,51.1851313342277,4,12,270,0,0,29.842,740,0,5.2,71.2,46
2016-08-05 12:55:00,69.9,69.9,69.9,52,51.4618562024236,8,13,270,0,0,29.842,806,0,5.8,71.4,46
2016-08-05 13:00:00,70.2,70.2,70.2,50,50.6776820712373,6,16,292.5,0,0,29.843,826,0.018,5.5,71.2,45
2016-08-05 13:05:00,70.5,70.5,70.5,53,52.5329606257508,5,14,0,0,0,29.849,803,0,5.6,71.1,47
2016-08-05 13:10:00,70.8,70.8,70.8,52,52.2919461407679,4,11,337.5,0,0,29.847,797,0,5.2,71.1,47
2016-08-05 13:15:00,70.6,70.6,70.6,53,52.6254030650773,6,15,270,0,0,29.85,771,0,5.2,71.2,47
2016-08-05 13:20:00,70.3,70.3,70.3,53,52.3480711650062,5,13,270,0,0,29.851,776,0,5.3,71.2,48
2016-08-05 13:25:00,70.1,70.1,70.1,53,52.163175594554,7,13,292.5,0,0,29.852,742,0,5.3,71.2,47
2016-08-05 13:30:00,70.2,70.2,70.2,53,52.2556241435125,6,13,337.5,0,0,29.856,807,0,5.5,71.2,47
2016-08-05 13:35:00,70.6,70.6,70.6,52,52.1074926843457,4,12,247.5,0,0,29.856,824,0,5.2,71.4,47
2016-08-05 13:40:00,71.1,71.1,71.1,50,51.5037960040806,4,9,225,0,0,29.857,643,0,4.8,71.4,46
2016-08-05 13:45:00,70.6,70.6,70.6,50,51.0448603182405,6,14,270,0,0,29.859,732,0,4.2,71.6,46
2016-08-05 13:50:00,69.8,69.8,69.8,52,51.3696161477183,6,10,337.5,0,0,29.853,647,0,4.1,71.8,46
2016-08-05 13:55:00,70.3,70.3,70.3,52,51.8308007419111,4,12,225,0,0,29.855,779,0,4.6,71.9,47
2016-08-05 14:00:00,71.3,71.3,71.3,50,51.6873587302073,4,13,292.5,0,0,29.855,719,0.02,4.1,72.1,46
2016-08-05 14:05:00,71.3,71.3,71.3,50,51.6873587302073,4,13,247.5,0,0,29.853,533,0,3.9,72.3,46
2016-08-05 14:10:00,70.7,70.7,70.7,50,51.1366507550748,5,15,0,0,0,29.855,635,0,4,72.3,46
2016-08-05 14:15:00,70.3,70.3,70.3,50,50.769479108027,5,14,337.5,0,0,29.855,655,0,3.9,72.4,45
2016-08-05 14:20:00,70.5,70.5,70.5,50,50.9530682314841,4,14,315,0,0,29.86,605,0,3.4,72.4,44
2016-08-05 14:25:00,69.9,69.9,69.9,50,50.40228106009,3,9,270,0,0,29.856,685,0,3.8,72.4,44
2016-08-05 14:30:00,70.9,70.9,70.9,49,50.774154475685,4,11,292.5,0,0,29.86,727,0,3.9,72.6,45
2016-08-05 14:35:00,69.6,69.6,69.6,50,50.1268651968408,6,14,292.5,0,0,29.854,549,0,2.6,72.8,43
2016-08-05 14:40:00,69.4,69.4,69.4,51,50.4765007360549,6,12,337.5,0,0,29.854,636,0,3.4,73,43
2016-08-05 14:45:00,70,70,70,49,49.9500254361193,5,14,292.5,0,0,29.857,622,0,3.3,73.1,43
2016-08-05 14:50:00,70.3,70.3,70.3,50,50.769479108027,5,10,292.5,0,0,29.861,583,0,3.3,73.1,43
2016-08-05 14:55:00,69.8,69.8,69.8,51,50.8446112153344,7,12,292.5,0,0,29.856,667,0,3.2,73.3,44
2016-08-05 15:00:00,69.5,69.5,69.5,51,50.5685307693656,6,11,292.5,0,0,29.857,670,0.017,3.4,73.6,43
2016-08-05 15:05:00,70,70,70,51,51.0286568014326,5,11,315,0,0,29.857,671,0,3.5,73.8,43
2016-08-05 15:10:00,70.3,70.3,70.3,51,51.3047131146022,4,9,0,0,0,29.86,671,0,3,74,42
2016-08-05 15:15:00,70.6,70.6,70.6,50,51.0448603182405,4,9,337.5,0,0,29.859,567,0,3,74,42
2016-08-05 15:20:00,70.8,70.8,70.8,50,51.2284395420315,5,11,315,0,0,29.857,691,0,3.1,73.8,43
2016-08-05 15:25:00,70.7,70.7,70.7,50,51.1366507550748,5,9,315,0,0,29.856,457,0,2.5,74,43
2016-08-05 15:30:00,70.6,70.6,70.6,51,51.5807549496111,4,9,315,0,0,29.856,545,0,2.7,74,43
2016-08-05 15:35:00,70.2,70.2,70.2,51,51.2126959522864,6,10,292.5,0,0,29.857,448,0,2.1,74,43
2016-08-05 15:40:00,69.8,69.8,69.8,52,51.3696161477183,4,10,292.5,0,0,29.855,478,0,2,73.6,43
2016-08-05 15:45:00,70.3,70.3,70.3,52,51.8308007419111,3,11,270,0,0,29.854,516,0,2.2,73.5,43
2016-08-05 15:50:00,70.3,70.3,70.3,52,51.8308007419111,5,9,270,0,0,29.857,510,0,2.1,73.3,44
2016-08-05 15:55:00,70.2,70.2,70.2,51,51.2126959522864,2,8,337.5,0,0,29.858,186,0,1.7,73.5,44
2016-08-05 16:00:00,69.8,69.8,69.8,50,50.3104774226331,5,11,270,0,0,29.858,226,0.013,1.3,73.3,41
2016-08-05 16:05:00,69.4,69.4,69.4,51,50.4765007360549,6,14,270,0,0,29.862,466,0,1.7,73,42
2016-08-05 16:10:00,70,70,70,51,51.0286568014326,5,16,225,0,0,29.858,594,0,1.9,73,43
2016-08-05 16:15:00,70.5,70.5,70.5,50,50.9530682314841,7,14,270,0,0,29.863,615,0,1.5,73.1,43
2016-08-05 16:20:00,70.6,70.6,70.6,50,51.0448603182405,5,13,292.5,0,0,29.86,392,0,1.3,73.3,43
2016-08-05 16:25:00,69.7,69.7,69.7,51,50.7525860089632,4,9,315,0,0,29.86,174,0,0.8,73.5,43
2016-08-05 16:30:00,69.5,69.5,69.5,52,51.0928865753624,3,8,247.5,0,0,29.86,361,0,1.1,73.5,43
2016-08-05 16:35:00,69.7,69.7,69.7,51,50.7525860089632,5,11,270,0,0,29.859,240,0,0.9,73.6,42
2016-08-05 16:40:00,69.3,69.3,69.3,52,50.908392353192,5,11,247.5,0,0,29.859,234,0,0.9,73.6,43
2016-08-05 16:45:00,69.2,69.2,69.2,52,50.8161428898069,6,10,315,0,0,29.857,254,0,0.7,73.6,42
2016-08-05 16:50:00,69,69,69,52,50.631639258237,5,11,315,0,0,29.858,188,0,0.2,73.6,42
2016-08-05 16:55:00,68.7,68.7,68.7,53,50.868735504132,4,11,180,0,0,29.856,159,0,0,73.6,43
2016-08-05 17:00:00,68.5,68.5,68.5,54,51.1887822445851,4,9,225,0,0,29.853,168,0.01,0.1,73.5,43
2016-08-05 17:05:00,68.6,68.6,68.6,53,50.7762640386584,3,9,202.5,0,0,29.855,170,0,0,73.5,43
2016-08-05 17:10:00,68.5,68.5,68.5,54,51.1887822445851,5,12,315,0,0,29.856,242,0,0.2,73.5,43
2016-08-05 17:15:00,68.4,68.4,68.4,54,51.0960984696418,4,16,247.5,0,0,29.856,125,0,0,73.3,43
2016-08-05 17:20:00,68.1,68.1,68.1,54,50.8180382155221,3,9,315,0,0,29.86,113,0,0,73.1,43
2016-08-05 17:25:00,68,68,68,55,51.2211553044061,5,11,315,0,0,29.862,157,0,0,73.3,44
2016-08-05 17:30:00,68.1,68.1,68.1,55,51.3140509794766,4,10,225,0,0,29.86,150,0,0,73.5,44
2016-08-05 17:35:00,67.9,67.9,67.9,56,51.6160006863217,4,12,315,0,0,29.861,98,0,0,73.5,44
2016-08-05 17:40:00,67.9,67.9,67.9,56,51.6160006863217,5,12,292.5,0,0,29.864,109,0,0,73.5,44
2016-08-05 17:45:00,67.7,67.7,67.7,56,51.4297964774933,5,12,292.5,0,0,29.864,181,0,0,73.5,44
2016-08-05 17:50:00,68.1,68.1,68.1,56,51.8021992559512,2,8,292.5,0,0,29.866,230,0,0,73.3,44
2016-08-05 17:55:00,68.4,68.4,68.4,56,52.081486537458,4,11,315,0,0,29.868,235,0,0,73.3,44
2016-08-05 18:00:00,68.3,68.3,68.3,56,51.988392186638,4,11,225,0,0,29.866,190,0.006,0,73.3,45
2016-08-05 18:05:00,67.9,67.9,67.9,57,52.0961475698486,4,12,225,0,0,29.869,127,0,0,73.3,45
2016-08-05 18:10:00,67.4,67.4,67.4,58,52.1014434630704,4,9,225,0,0,29.873,113,0,0,73.3,45
2016-08-05 18:15:00,67.4,67.4,67.4,58,52.1014434630704,3,9,337.5,0,0,29.872,130,0,0,73.1,45
2016-08-05 18:20:00,67.3,67.3,67.3,58,52.0079384789022,3,9,270,0,0,29.873,143,0,0,73.1,45
2016-08-05 18:25:00,67.2,67.2,67.2,59,52.378764990403,3,10,337.5,0,0,29.874,121,0,0,73.1,45
2016-08-05 18:30:00,67,67,67,59,52.1913603716087,3,9,315,0,0,29.873,92,0,0,73,46
2016-08-05 18:35:00,66.8,66.8,66.8,60,52.4606538048587,3,8,315,0,0,29.874,112,0,0,73,46
2016-08-05 18:40:00,66.5,66.5,66.5,60,52.1789559306705,4,9,315,0,0,29.872,77,0,0,73,46
2016-08-05 18:45:00,66.4,66.4,66.4,60,52.0850541231079,2,8,315,0,0,29.872,45,0,0,72.8,46
2016-08-05 18:50:00,66.2,66.2,66.2,61,52.3461791354259,4,8,315,0,0,29.873,19,0,0,72.8,46
2016-08-05 18:55:00,66,66,66,61,52.1579899928535,3,10,315,0,0,29.873,12,0,0,72.6,47
2016-08-05 19:00:00,65.8,65.8,65.8,62,52.411564322678,2,7,270,0,0,29.875,8,0.003,0,72.6,47
2016-08-05 19:05:00,65.7,65.7,65.7,62,52.3172797547778,4,11,292.5,0,0,29.88,9,0,0,72.4,47
2016-08-05 19:10:00,65.3,65.3,65.3,63,52.3747649171361,5,10,315,0,0,29.88,9,0,0,72.3,48
2016-08-05 19:15:00,64.9,64.9,64.9,64,52.4247558976154,7,16,315,0,0,29.884,13,0,0,72.3,48
2016-08-05 19:20:00,64.5,64.5,64.5,66,52.883145361758,5,13,315,0,0,29.887,13,0,0,72.1,48
2016-08-05 19:25:00,64.2,64.2,64.2,66,52.5980902134699,4,8,337.5,0,0,29.89,12,0,0,72.1,49
2016-08-05 19:30:00,64,64,64,68,53.2213584645929,5,10,315,0,0,29.898,16,0,0,71.8,50
2016-08-05 19:35:00,63.6,63.6,63.6,69,53.2380077924517,6,11,315,0,0,29.9,19,0,0,71.4,51
2016-08-05 19:40:00,63.3,63.3,63.3,70,53.3439696920951,5,9,315,0,0,29.902,18,0,0,71.1,52
2016-08-05 19:45:00,63.1,63.1,63.1,70,53.1525471082376,4,9,292.5,0,0,29.901,14,0,0,70.9,52
2016-08-05 19:50:00,63.1,63.1,63.1,71,53.5399078434238,0,4,0,0,0,29.9,12,0,0,70.7,52
2016-08-05 19:55:00,63,63,63,71,53.4440300003432,0,1,0,0,0,29.902,8,0,0,70.4,53
2016-08-05 20:00:00,62.9,62.9,62.9,71,53.3481512869714,1,5,292.5,0,0,29.901,5,0.002,0,70.1,53
2016-08-05 20:05:00,62.8,62.8,62.8,71,53.2522717032965,1,6,292.5,0,0,29.9,1,0,0,69.9,53
2016-08-05 20:10:00,62.6,62.6,62.6,71,53.0605099249902,0,0,0,0,0,29.907,0,0,0,69.7,54
2016-08-05 20:15:00,62.6,62.6,62.6,72,53.4422916135899,1,5,292.5,0,0,29.907,0,0,0,69.6,54
2016-08-05 20:20:00,62.5,62.5,62.5,72,53.3462462821869,1,5,247.5,0,0,29.907,0,0,0,69.4,54
2016-08-05 20:25:00,62.5,62.5,62.5,72,53.3462462821869,0,2,0,0,0,29.908,0,0,0,69.4,55
2016-08-05 20:30:00,62.4,62.4,62.4,72,53.2502001138447,1,5,247.5,0,0,29.911,0,0,0,69,55
2016-08-05 20:35:00,62.4,62.4,62.4,73,53.6270296516306,1,5,247.5,0,0,29.911,0,0,0,68.9,55
2016-08-05 20:40:00,62.4,62.4,62.4,73,53.6270296516306,2,6,247.5,0,0,29.919,0,0,0,68.7,56
2016-08-05 20:45:00,62.4,62.4,62.4,73,53.6270296516306,1,4,247.5,0,0,29.917,0,0,0,68.5,56
2016-08-05 20:50:00,62.3,62.3,62.3,73,53.5308214179533,1,5,225,0,0,29.917,0,0,0,68.4,56
2016-08-05 20:55:00,62.1,62.1,62.1,73,53.338402539074,1,4,225,0,0,29.918,0,0,0,68.2,57
2016-08-05 21:00:00,61.9,61.9,61.9,73,53.1459804447614,2,6,225,0,0,29.925,0,0,0,68,57
2016-08-05 21:05:00,61.8,61.8,61.8,74,53.4211345633871,4,13,202.5,0,0,29.924,0,0,0,67.9,57
2016-08-05 21:10:00,61.6,61.6,61.6,74,53.2283892071545,3,9,247.5,0,0,29.922,0,0,0,67.9,57
2016-08-05 21:15:00,61.4,61.4,61.4,74,53.0356407666677,3,8,225,0,0,29.923,0,0,0,67.7,57
2016-08-05 21:20:00,61.1,61.1,61.1,74,52.7465123227989,3,7,225,0,0,29.926,0,0,0,67.7,57
2016-08-05 21:25:00,60.8,60.8,60.8,75,52.822787592975,2,7,225,0,0,29.923,0,0,0,67.7,57
2016-08-05 21:30:00,60.6,60.6,60.6,75,52.6297125267564,2,7,292.5,0,0,29.929,0,0,0,67.7,58
2016-08-05 21:35:00,60.4,60.4,60.4,76,52.7971678713632,1,6,292.5,0,0,29.928,0,0,0,67.4,58
2016-08-05 21:40:00,60.2,60.2,60.2,76,52.6037762757145,2,6,270,0,0,29.932,0,0,0,67.2,58
2016-08-05 21:45:00,60,60,60,77,52.7661568004881,1,5,270,0,0,29.93,0,0,0,67,58
2016-08-05 21:50:00,59.9,59.9,59.9,77,52.6693049948465,1,6,247.5,0,0,29.931,0,0,0,66.9,59
2016-08-05 21:55:00,59.7,59.7,59.7,77,52.4755993606857,1,5,247.5,0,0,29.932,0,0,0,66.7,59